Date String (YYYY-MM-DD hh:mm:ss) UTC,Instrument flags,Ambient pressure (hPa),Sample flow (lpm),Bypass flow (lpm),Sample temperature (°C),Ambient temperature (°C),ASC tube jacket temperature (°C),LED temperature (°C),Box temperature (°C),Sample RH (%),Span deviation,Mass concentration (μg/m³),Mass concentration (μg/m³),Mass concentration (μg/m³)
DateTimeUTC,F1_M11,P_M11,Q1_M11,Q2_M11,T1_M11,T2_M11,T3_M11,T4_M11,T5_M11,U1_M11,ZSPAN_M11,X0_M11,X2_M11,X1_M11
2021-11-20 15:00:00,,0827.3,5.00,0.00,25.9,24.9,00.0,34.9,27.7,10.9,0000.0,0011.28,0003.81,0003.18
2021-11-20 15:01:00,,0827.3,5.01,0.00,25.9,25.0,00.0,34.9,27.7,10.9,0000.0,0010.24,0003.73,0003.14
2021-11-20 15:02:00,,0827.2,5.00,0.00,25.9,25.0,00.0,34.9,27.8,10.9,0000.0,0010.39,0003.73,0003.10
2021-11-20 15:03:00,,0827.2,5.02,0.00,25.9,25.0,00.0,34.9,27.8,11.0,0000.0,0010.04,0003.73,0003.06
2021-11-20 15:04:00,,0827.3,5.01,0.00,25.9,25.0,00.0,34.9,27.8,11.0,0000.0,0009.96,0003.70,0003.03
2021-11-20 15:05:00,,0827.3,5.00,0.00,25.9,25.0,00.0,34.9,27.7,11.0,0000.0,0010.20,0003.71,0003.01
2021-11-20 15:06:00,,0827.2,5.01,0.00,25.9,25.0,00.0,34.9,27.7,11.0,0000.0,0010.38,0003.70,0003.00
2021-11-20 15:07:00,,0827.2,5.00,0.00,25.9,25.0,00.0,34.9,27.8,11.0,0000.0,0010.75,0003.68,0002.91
2021-11-20 15:08:00,,0827.2,5.00,0.00,25.9,25.0,00.0,34.9,27.8,11.0,0000.0,0009.88,0003.68,0002.86
2021-11-20 15:09:00,,0827.2,4.99,0.00,25.9,25.0,00.0,34.9,27.7,11.0,0000.0,0008.65,0003.68,0002.82
2021-11-20 15:10:00,,0827.2,5.00,0.00,25.9,25.0,00.0,34.9,27.7,11.0,0000.0,0008.34,0003.68,0002.80
2021-11-20 15:11:00,,0827.2,5.01,0.00,25.9,25.0,00.0,34.9,27.7,11.0,0000.0,0008.48,0003.68,0002.79
2021-11-20 15:12:00,,0827.2,5.01,0.00,25.9,25.1,00.0,34.9,27.7,11.0,0000.0,0008.54,0003.71,0002.78
2021-11-20 15:13:00,,0827.2,4.99,0.00,25.9,25.1,00.0,34.9,27.7,11.0,0000.0,0008.31,0003.67,0002.74
2021-11-20 15:14:00,,0827.2,5.00,0.00,25.9,25.1,00.0,34.9,27.7,11.0,0000.0,0008.37,0003.65,0002.75
2021-11-20 15:15:00,,0827.2,4.99,0.00,25.9,25.1,00.0,34.9,27.8,11.0,0000.0,0008.68,0003.65,0002.77
2021-11-20 15:16:00,,0827.2,5.01,0.00,25.9,25.1,00.0,34.9,27.8,11.0,0000.0,0008.46,0003.64,0002.78
2021-11-20 15:17:00,,0827.2,4.98,0.00,26.0,25.1,00.0,34.9,27.8,11.0,0000.0,0008.30,0003.64,0002.80
2021-11-20 15:18:00,,0827.3,5.01,0.00,26.0,25.2,00.0,34.9,27.8,11.0,0000.0,0008.09,0003.66,0002.81
2021-11-20 15:19:00,,0827.3,5.01,0.00,26.0,25.2,00.0,34.9,27.8,11.0,0000.0,0007.86,0003.63,0002.82
2021-11-20 15:20:00,,0827.2,5.00,0.00,26.0,25.2,00.0,34.9,27.8,11.1,0000.0,0007.77,0003.61,0002.85
2021-11-20 15:21:00,,0827.2,5.00,0.00,26.0,25.2,00.0,34.9,27.8,11.0,0000.0,0007.79,0003.61,0002.87
2021-11-20 15:22:00,,0827.4,5.01,0.00,26.0,25.2,00.0,34.9,27.8,11.0,0000.0,0007.59,0003.60,0002.86
2021-11-20 15:23:00,,0827.2,4.99,0.00,26.0,25.2,00.0,34.9,27.8,11.0,0000.0,0008.00,0003.58,0002.86
2021-11-20 15:24:00,,0827.4,4.99,0.00,26.0,25.2,00.0,34.9,27.8,11.0,0000.0,0008.38,0003.60,0002.86
2021-11-20 15:25:00,,0827.3,5.00,0.00,26.0,25.2,00.0,34.9,27.8,11.0,0000.0,0008.49,0003.63,0002.87
2021-11-20 15:26:00,,0827.3,5.00,0.00,26.0,25.2,00.0,34.9,27.8,11.0,0000.0,0008.24,0003.66,0002.89
2021-11-20 15:27:00,,0827.3,4.99,0.00,26.0,25.2,00.0,34.9,27.8,11.0,0000.0,0008.55,0003.70,0002.90
2021-11-20 15:28:00,,0827.4,5.01,0.00,26.0,25.2,00.0,35.0,27.8,11.0,0000.0,0008.51,0003.68,0002.89
2021-11-20 15:29:00,,0827.4,5.01,0.00,26.0,25.2,00.0,35.0,27.8,11.0,0000.0,0008.33,0003.65,0002.89
2021-11-20 15:30:00,,0827.4,4.99,0.00,26.0,25.2,00.0,35.0,27.8,11.0,0000.0,0008.53,0003.64,0002.88
2021-11-20 15:31:00,,0827.4,4.99,0.00,26.0,25.2,00.0,35.0,27.8,10.9,0000.0,0008.78,0003.66,0002.87
2021-11-20 15:32:00,,0827.4,5.01,0.00,26.0,25.3,00.0,35.0,27.9,10.9,0000.0,0008.85,0003.66,0002.85
2021-11-20 15:33:00,,0827.4,5.00,0.00,26.0,25.3,00.0,35.0,27.9,10.9,0000.0,0008.80,0003.65,0002.85
2021-11-20 15:34:00,,0827.4,5.00,0.00,26.1,25.3,00.0,35.0,27.9,10.9,0000.0,0008.46,0003.64,0002.83
2021-11-20 15:35:00,,0827.4,5.01,0.00,26.1,25.3,00.0,35.0,27.9,10.9,0000.0,0007.97,0003.64,0002.83
2021-11-20 15:36:00,,0827.4,4.99,0.00,26.1,25.3,00.0,35.0,27.9,10.9,0000.0,0007.86,0003.65,0002.82
2021-11-20 15:37:00,,0827.4,5.01,0.00,26.1,25.3,00.0,35.0,27.9,11.0,0000.0,0008.26,0003.68,0002.82
2021-11-20 15:38:00,,0827.3,4.99,0.00,26.1,25.3,00.0,35.0,27.9,11.1,0000.0,0008.47,0003.71,0002.85
2021-11-20 15:39:00,,0827.3,5.01,0.00,26.1,25.3,00.0,35.0,28.0,11.2,0000.0,0009.05,0003.76,0002.89
2021-11-20 15:40:00,,0827.3,5.00,0.00,26.1,25.3,00.0,35.0,28.0,11.2,0000.0,0009.68,0003.78,0002.93
2021-11-20 15:41:00,,0827.3,4.99,0.00,26.1,25.3,00.0,35.1,28.0,11.2,0000.0,0009.62,0003.82,0002.97
2021-11-20 15:42:00,,0827.3,5.01,0.00,26.1,25.3,00.0,35.1,28.0,11.2,0000.0,0010.19,0003.88,0002.99
2021-11-20 15:43:00,,0827.2,5.00,0.00,26.2,25.4,00.0,35.1,28.0,11.1,0000.0,0010.60,0003.89,0003.01
2021-11-20 15:44:00,,0827.2,5.00,0.00,26.2,25.4,00.0,35.1,28.0,11.0,0000.0,0010.95,0003.92,0003.04
2021-11-20 15:45:00,,0827.2,5.00,0.00,26.2,25.4,00.0,35.1,28.0,11.1,0000.0,0011.23,0003.98,0003.08
2021-11-20 15:46:00,,0827.3,5.01,0.00,26.2,25.4,00.0,35.1,28.0,11.2,0000.0,0011.63,0003.99,0003.11
2021-11-20 15:47:00,,0827.3,4.99,0.00,26.2,25.4,00.0,35.1,28.0,11.2,0000.0,0011.89,0003.99,0003.13
2021-11-20 15:48:00,,0827.3,5.00,0.00,26.2,25.4,00.0,35.1,28.1,11.2,0000.0,0012.15,0003.99,0003.14
2021-11-20 15:49:00,,0827.3,5.01,0.00,26.2,25.4,00.0,35.1,28.1,11.3,0000.0,0012.61,0003.96,0003.14
2021-11-20 15:50:00,,0827.2,5.01,0.00,26.2,25.4,00.0,35.1,28.1,11.2,0000.0,0012.41,0004.01,0003.14
2021-11-20 15:51:00,,0827.2,5.00,0.00,26.2,25.5,00.0,35.2,28.1,11.2,0000.0,0012.28,0004.03,0003.14
2021-11-20 15:52:00,,0827.2,5.00,0.00,26.3,25.5,00.0,35.2,28.1,11.0,0000.0,0013.07,0004.09,0003.14
2021-11-20 15:53:00,,0827.2,5.00,0.00,26.3,25.5,00.0,35.2,28.1,11.0,0000.0,0012.40,0004.03,0003.15
2021-11-20 15:54:00,,0827.4,5.01,0.00,26.3,25.5,00.0,35.2,28.2,11.0,0000.0,0011.84,0004.01,0003.16
2021-11-20 15:55:00,,0827.3,4.99,0.00,26.3,25.5,00.0,35.2,28.2,11.0,0000.0,0011.71,0004.05,0003.17
2021-11-20 15:56:00,,0827.3,5.00,0.00,26.3,25.5,00.0,35.2,28.2,11.0,0000.0,0011.58,0004.07,0003.19
2021-11-20 15:57:00,,0827.3,5.01,0.00,26.3,25.6,00.0,35.2,28.2,11.0,0000.0,0011.35,0004.09,0003.21
2021-11-20 15:58:00,,0827.3,5.00,0.00,26.4,25.6,00.0,35.2,28.2,11.0,0000.0,0011.39,0004.12,0003.22
2021-11-20 15:59:00,,0827.3,4.99,0.00,26.4,25.6,00.0,35.3,28.2,11.0,0000.0,0011.06,0004.13,0003.24
